Powrót do katalogu

FENGYUN 1C DEB

AktywnyPO
NORAD 32114·DEBRIS·🇨🇳 China

Wystrzelony May 10, 1999 z Taiyuan Satellite Launch Center

Loading…

Następne Przeloty (najbliższe 24 godziny)

TLE

ŚwieżeSource: Space-Track

Epoka: Sep 13, 2026, 18:37 UTC

1 32114U 99025CRG 26256.77580219  .00008548  00000-0  10105-2 0  9990
2 32114  99.9431  84.1774 0039490 223.8915 135.9154 14.84432990698010

Śledź FENGYUN 1C DEB w czasie rzeczywistym z AllMySat

Download on the App Store